,,PressureMeas_1m,,PRMeasQMR101_1,,RHStat155_1m_1,,SRMeasQMS101R_1m,,TAStat155_1m_1,,GenWind_1,,GenWind_1,
2017-05-27, 07:00:07,VALID,915.701,VALID,0.0,VALID,97.699,VALID,68.022,VALID,20.937,VALID,171.0,VALID,1.266,
2017-05-27, 07:01:07,VALID,915.717,VALID,0.0,VALID,97.607,VALID,84.345,VALID,20.939,VALID,167.0,VALID,1.293,
2017-05-27, 07:02:07,VALID,915.72,VALID,0.0,VALID,97.518,VALID,78.153,VALID,20.929,VALID,155.0,VALID,1.874,
2017-05-27, 07:03:07,VALID,915.737,VALID,0.0,VALID,97.485,VALID,96.718,VALID,20.923,VALID,159.0,VALID,1.56,
2017-05-27, 07:04:07,VALID,915.747,VALID,0.0,VALID,97.538,VALID,95.332,VALID,20.936,VALID,163.0,VALID,1.97,
2017-05-27, 07:05:07,VALID,915.763,VALID,0.0,VALID,97.443,VALID,98.426,VALID,20.918,VALID,156.0,VALID,1.923,
2017-05-27, 07:06:07,VALID,915.771,VALID,0.0,VALID,97.6,VALID,110.158,VALID,20.965,VALID,167.0,VALID,0.786,
2017-05-27, 07:07:07,VALID,915.786,VALID,0.0,VALID,97.555,VALID,120.403,VALID,20.976,VALID,164.0,VALID,1.965,
2017-05-27, 07:08:07,VALID,915.793,VALID,0.0,VALID,97.454,VALID,125.442,VALID,20.979,VALID,157.0,VALID,1.453,
2017-05-27, 07:09:07,VALID,915.804,VALID,0.0,VALID,97.54,VALID,118.523,VALID,21.011,VALID,172.0,VALID,1.647,
2017-05-27, 07:10:07,VALID,915.819,VALID,0.0,VALID,97.487,VALID,130.36,VALID,21.027,VALID,168.0,VALID,0.856,
2017-05-27, 07:11:06,VALID,915.843,VALID,0.0,VALID,97.561,VALID,140.656,VALID,21.085,VALID,170.0,VALID,0.943,
2017-05-27, 07:12:06,VALID,915.855,VALID,0.0,VALID,97.476,VALID,158.349,VALID,21.113,VALID,155.0,VALID,1.195,
2017-05-27, 07:13:06,VALID,915.863,VALID,0.0,VALID,97.156,VALID,179.582,VALID,21.078,VALID,155.0,VALID,1.337,
2017-05-27, 07:14:06,VALID,915.874,VALID,0.0,VALID,97.37,VALID,156.753,VALID,21.135,VALID,160.0,VALID,1.7,
2017-05-27, 07:15:06,VALID,915.878,VALID,0.0,VALID,97.132,VALID,130.446,VALID,21.105,VALID,159.0,VALID,2.41,
2017-05-27, 07:16:06,VALID,915.877,VALID,0.0,VALID,97.133,VALID,120.021,VALID,21.092,VALID,154.0,VALID,1.97,
2017-05-27, 07:17:06,VALID,915.895,VALID,0.0,VALID,97.109,VALID,111.349,VALID,21.07,VALID,148.0,VALID,2.454,
2017-05-27, 07:18:06,VALID,915.912,VALID,0.0,VALID,97.071,VALID,110.598,VALID,21.046,VALID,145.0,VALID,2.085,
2017-05-27, 07:19:06,VALID,915.921,VALID,0.0,VALID,97.129,VALID,129.746,VALID,21.037,VALID,149.0,VALID,2.227,
2017-05-27, 07:20:06,VALID,915.943,VALID,0.0,VALID,97.268,VALID,105.648,VALID,21.058,VALID,143.0,VALID,1.591,
2017-05-27, 07:21:06,VALID,915.965,VALID,0.0,VALID,97.403,VALID,108.846,VALID,21.09,VALID,144.0,VALID,1.64,
2017-05-27, 07:22:06,VALID,915.987,VALID,0.0,VALID,97.322,VALID,118.181,VALID,21.093,VALID,166.0,VALID,1.679,
2017-05-27, 07:23:06,VALID,916.019,VALID,0.0,VALID,97.213,VALID,118.454,VALID,21.1,VALID,163.0,VALID,1.091,
2017-05-27, 07:24:06,VALID,916.043,VALID,0.0,VALID,97.296,VALID,130.648,VALID,21.147,VALID,134.0,VALID,0.71,
2017-05-27, 07:25:06,VALID,916.059,VALID,0.0,VALID,97.37,VALID,124.272,VALID,21.201,VALID,131.0,VALID,1.069,
2017-05-27, 07:26:06,VALID,916.066,VALID,0.0,VALID,97.1,VALID,135.779,VALID,21.178,VALID,144.0,VALID,1.731,
2017-05-27, 07:27:06,VALID,916.072,VALID,0.0,VALID,96.87,VALID,121.546,VALID,21.142,VALID,153.0,VALID,1.685,
2017-05-27, 07:28:06,VALID,916.078,VALID,0.0,VALID,96.958,VALID,142.194,VALID,21.154,VALID,124.0,VALID,1.445,
2017-05-27, 07:29:06,VALID,916.069,VALID,0.0,VALID,96.971,VALID,183.818,VALID,21.169,VALID,120.0,VALID,1.847,
2017-05-27, 07:30:06,VALID,916.057,VALID,0.0,VALID,97.016,VALID,224.103,VALID,21.203,VALID,134.0,VALID,1.328,
2017-05-27, 07:31:06,VALID,916.048,VALID,0.0,VALID,97.011,VALID,228.652,VALID,21.255,VALID,139.0,VALID,1.561,
2017-05-27, 07:32:06,VALID,916.027,VALID,0.0,VALID,96.822,VALID,208.483,VALID,21.275,VALID,146.0,VALID,1.824,
2017-05-27, 07:33:06,VALID,916.018,VALID,0.0,VALID,96.758,VALID,173.648,VALID,21.285,VALID,146.0,VALID,1.997,
2017-05-27, 07:34:06,VALID,916.009,VALID,0.0,VALID,96.293,VALID,186.178,VALID,21.228,VALID,147.0,VALID,2.038,
2017-05-27, 07:35:06,VALID,916.015,VALID,0.0,VALID,96.57,VALID,226.05,VALID,21.259,VALID,135.0,VALID,1.65,
2017-05-27, 07:36:06,VALID,916.016,VALID,0.0,VALID,96.451,VALID,260.494,VALID,21.27,VALID,125.0,VALID,2.086,
2017-05-27, 07:37:06,VALID,916.019,VALID,0.0,VALID,96.539,VALID,288.01,VALID,21.352,VALID,140.0,VALID,1.571,
2017-05-27, 07:38:06,VALID,916.025,VALID,0.0,VALID,96.716,VALID,300.237,VALID,21.47,VALID,144.0,VALID,1.413,
2017-05-27, 07:39:06,VALID,916.027,VALID,0.0,VALID,96.215,VALID,261.182,VALID,21.503,VALID,152.0,VALID,1.891,
2017-05-27, 07:40:06,VALID,916.045,VALID,0.0,VALID,95.716,VALID,265.743,VALID,21.506,VALID,152.0,VALID,1.595,
2017-05-27, 07:41:06,VALID,916.049,VALID,0.0,VALID,95.677,VALID,224.679,VALID,21.564,VALID,145.0,VALID,1.33,
2017-05-27, 07:42:06,VALID,916.063,VALID,0.0,VALID,95.145,VALID,278.826,VALID,21.576,VALID,149.0,VALID,1.709,
2017-05-27, 07:43:06,VALID,916.065,VALID,0.0,VALID,95.112,VALID,313.265,VALID,21.591,VALID,151.0,VALID,1.584,
2017-05-27, 07:44:06,VALID,916.084,VALID,0.0,VALID,95.18,VALID,314.907,VALID,21.633,VALID,149.0,VALID,1.372,
2017-05-27, 07:45:06,VALID,916.102,VALID,0.0,VALID,95.025,VALID,289.977,VALID,21.687,VALID,148.0,VALID,1.659,
2017-05-27, 07:46:06,VALID,916.122,VALID,0.0,VALID,94.574,VALID,254.201,VALID,21.688,VALID,152.0,VALID,1.489,
2017-05-27, 07:47:06,VALID,916.146,VALID,0.0,VALID,94.872,VALID,243.194,VALID,21.746,VALID,154.0,VALID,1.394,
2017-05-27, 07:48:06,VALID,916.158,VALID,0.0,VALID,94.351,VALID,291.688,VALID,21.786,VALID,139.0,VALID,1.244,
2017-05-27, 07:49:06,VALID,916.152,VALID,0.0,VALID,94.284,VALID,267.243,VALID,21.867,VALID,145.0,VALID,0.742,
2017-05-27, 07:50:06,VALID,916.148,VALID,0.0,VALID,94.456,VALID,259.569,VALID,22.044,VALID,147.0,VALID,0.895,
2017-05-27, 07:51:06,VALID,916.144,VALID,0.0,VALID,92.793,VALID,323.795,VALID,22.118,VALID,152.0,VALID,0.899,
2017-05-27, 07:52:06,VALID,916.13,VALID,0.0,VALID,92.405,VALID,339.77,VALID,22.148,VALID,158.0,VALID,1.178,
2017-05-27, 07:53:06,VALID,916.124,VALID,0.0,VALID,91.798,VALID,347.292,VALID,22.14,VALID,154.0,VALID,1.321,
2017-05-27, 07:54:06,VALID,916.106,VALID,0.0,VALID,91.514,VALID,357.483,VALID,22.133,VALID,162.0,VALID,1.048,
2017-05-27, 07:55:06,VALID,916.097,VALID,0.0,VALID,92.007,VALID,358.986,VALID,22.227,VALID,162.0,VALID,1.057,
2017-05-27, 07:56:06,VALID,916.098,VALID,0.0,VALID,91.274,VALID,359.02,VALID,22.346,VALID,180.0,VALID,0.991,
2017-05-27, 07:57:06,VALID,916.097,VALID,0.0,VALID,91.055,VALID,358.73,VALID,22.493,VALID,173.0,VALID,0.864,
2017-05-27, 07:58:06,VALID,916.117,VALID,0.0,VALID,90.925,VALID,359.063,VALID,22.63,VALID,174.0,VALID,1.08,
2017-05-27, 07:59:06,VALID,916.127,VALID,0.0,VALID,89.912,VALID,364.277,VALID,22.72,VALID,169.0,VALID,1.259,
2017-05-27, 08:00:06,VALID,916.136,VALID,0.0,VALID,89.827,VALID,364.837,VALID,22.801,VALID,163.0,VALID,1.21,
2017-05-27, 08:01:06,VALID,916.148,VALID,0.0,VALID,89.611,VALID,364.068,VALID,22.795,VALID,168.0,VALID,0.599,
2017-05-27, 08:02:06,VALID,916.154,VALID,0.0,VALID,90.318,VALID,352.697,VALID,22.911,VALID,175.0,VALID,0.45,
2017-05-27, 08:03:06,VALID,916.183,VALID,0.0,VALID,90.201,VALID,353.922,VALID,23.064,VALID,162.0,VALID,0.614,
2017-05-27, 08:04:06,VALID,916.179,VALID,0.0,VALID,89.236,VALID,367.358,VALID,23.188,VALID,167.0,VALID,0.988,
2017-05-27, 08:05:06,VALID,916.188,VALID,0.0,VALID,88.769,VALID,373.529,VALID,23.276,VALID,155.0,VALID,1.095,
2017-05-27, 08:06:06,VALID,916.196,VALID,0.0,VALID,87.496,VALID,376.17,VALID,23.19,VALID,156.0,VALID,1.782,
2017-05-27, 08:07:06,VALID,916.206,VALID,0.0,VALID,88.761,VALID,375.042,VALID,22.984,VALID,161.0,VALID,1.15,
2017-05-27, 08:08:06,VALID,916.217,VALID,0.0,VALID,89.048,VALID,376.583,VALID,23.049,VALID,164.0,VALID,1.28,
2017-05-27, 08:09:06,VALID,916.233,VALID,0.0,VALID,88.465,VALID,375.22,VALID,23.115,VALID,148.0,VALID,1.159,
2017-05-27, 08:10:06,VALID,916.254,VALID,0.0,VALID,89.577,VALID,383.14,VALID,23.106,VALID,109.0,VALID,1.055,
2017-05-27, 08:11:06,VALID,916.28,VALID,0.0,VALID,88.771,VALID,379.945,VALID,23.115,VALID,98.0,VALID,1.26,
2017-05-27, 08:12:06,VALID,916.305,VALID,0.0,VALID,89.572,VALID,380.679,VALID,23.079,VALID,107.0,VALID,1.536,
2017-05-27, 08:13:06,VALID,916.342,VALID,0.0,VALID,88.827,VALID,375.736,VALID,23.09,VALID,133.0,VALID,1.484,
2017-05-27, 08:14:06,VALID,916.359,VALID,0.0,VALID,88.609,VALID,371.58,VALID,23.061,VALID,143.0,VALID,0.97,
2017-05-27, 08:15:06,VALID,916.37,VALID,0.0,VALID,89.599,VALID,377.36,VALID,23.178,VALID,108.0,VALID,0.515,
2017-05-27, 08:16:06,VALID,916.391,VALID,0.0,VALID,88.164,VALID,376.64,VALID,23.332,VALID,106.0,VALID,1.255,
2017-05-27, 08:17:06,VALID,916.394,VALID,0.0,VALID,87.829,VALID,384.382,VALID,23.271,VALID,87.0,VALID,1.102,
2017-05-27, 08:18:06,VALID,916.398,VALID,0.0,VALID,89.026,VALID,327.513,VALID,23.385,VALID,93.0,VALID,0.802,
2017-05-27, 08:19:06,VALID,916.397,VALID,0.0,VALID,87.523,VALID,333.534,VALID,23.496,VALID,88.0,VALID,0.852,
2017-05-27, 08:20:06,VALID,916.418,VALID,0.0,VALID,86.714,VALID,323.802,VALID,23.46,VALID,93.0,VALID,0.587,
2017-05-27, 08:21:06,VALID,916.409,VALID,0.0,VALID,87.615,VALID,339.356,VALID,23.471,VALID,140.0,VALID,0.784,
2017-05-27, 08:22:06,VALID,916.424,VALID,0.0,VALID,86.897,VALID,288.988,VALID,23.423,VALID,168.0,VALID,0.738,
2017-05-27, 08:23:06,VALID,916.429,VALID,0.0,VALID,86.724,VALID,292.815,VALID,23.447,VALID,159.0,VALID,1.033,
2017-05-27, 08:24:06,VALID,916.436,VALID,0.0,VALID,87.571,VALID,267.866,VALID,23.401,VALID,161.0,VALID,0.644,
2017-05-27, 08:25:06,VALID,916.439,VALID,0.0,VALID,87.533,VALID,270.073,VALID,23.462,VALID,166.0,VALID,0.644,
2017-05-27, 08:26:06,VALID,916.432,VALID,0.0,VALID,87.073,VALID,214.324,VALID,23.533,VALID,166.0,VALID,0.667,
2017-05-27, 08:27:06,VALID,916.425,VALID,0.0,VALID,86.736,VALID,242.576,VALID,23.542,VALID,164.0,VALID,1.355,
2017-05-27, 08:28:06,VALID,916.418,VALID,0.0,VALID,86.758,VALID,244.157,VALID,23.382,VALID,161.0,VALID,1.462,
2017-05-27, 08:29:06,VALID,916.423,VALID,0.0,VALID,87.151,VALID,252.903,VALID,23.226,VALID,139.0,VALID,1.751,
2017-05-27, 08:30:06,VALID,916.427,VALID,0.0,VALID,87.919,VALID,243.123,VALID,23.116,VALID,146.0,VALID,1.448,
2017-05-27, 08:31:06,VALID,916.428,VALID,0.0,VALID,88.587,VALID,297.167,VALID,23.048,VALID,156.0,VALID,1.763,
2017-05-27, 08:32:06,VALID,916.424,VALID,0.0,VALID,88.783,VALID,327.262,VALID,23.004,VALID,152.0,VALID,1.777,
2017-05-27, 08:33:06,VALID,916.41,VALID,0.0,VALID,89.157,VALID,316.292,VALID,22.986,VALID,156.0,VALID,1.641,
2017-05-27, 08:34:06,VALID,916.398,VALID,0.0,VALID,89.166,VALID,353.185,VALID,23.017,VALID,163.0,VALID,1.239,
2017-05-27, 08:35:06,VALID,916.391,VALID,0.0,VALID,89.439,VALID,372.259,VALID,23.153,VALID,148.0,VALID,1.5,
2017-05-27, 08:36:06,VALID,916.379,VALID,0.0,VALID,88.723,VALID,384.39,VALID,23.229,VALID,158.0,VALID,1.747,
2017-05-27, 08:37:06,VALID,916.39,VALID,0.0,VALID,87.966,VALID,405.273,VALID,23.266,VALID,145.0,VALID,1.629,
2017-05-27, 08:38:06,VALID,916.382,VALID,0.0,VALID,88.124,VALID,422.968,VALID,23.216,VALID,123.0,VALID,1.805,
2017-05-27, 08:39:06,VALID,916.404,VALID,0.0,VALID,88.671,VALID,454.42,VALID,23.278,VALID,157.0,VALID,1.514,
2017-05-27, 08:40:06,VALID,916.409,VALID,0.0,VALID,88.248,VALID,473.603,VALID,23.37,VALID,154.0,VALID,2.214,
2017-05-27, 08:41:06,VALID,916.427,VALID,0.0,VALID,87.755,VALID,498.029,VALID,23.338,VALID,160.0,VALID,2.081,
2017-05-27, 08:42:06,VALID,916.434,VALID,0.0,VALID,88.051,VALID,512.17,VALID,23.362,VALID,161.0,VALID,1.68,
2017-05-27, 08:43:06,VALID,916.43,VALID,0.0,VALID,88.094,VALID,515.764,VALID,23.516,VALID,153.0,VALID,1.854,
2017-05-27, 08:44:06,VALID,916.43,VALID,0.0,VALID,86.671,VALID,538.457,VALID,23.591,VALID,165.0,VALID,2.309,
2017-05-27, 08:45:06,VALID,916.422,VALID,0.0,VALID,86.449,VALID,540.836,VALID,23.649,VALID,146.0,VALID,1.89,
2017-05-27, 08:46:06,VALID,916.421,VALID,0.0,VALID,86.726,VALID,546.634,VALID,23.625,VALID,153.0,VALID,1.95,
2017-05-27, 08:47:06,VALID,916.401,VALID,0.0,VALID,86.844,VALID,531.866,VALID,23.694,VALID,161.0,VALID,1.678,
2017-05-27, 08:48:06,VALID,916.399,VALID,0.0,VALID,86.475,VALID,503.967,VALID,23.82,VALID,157.0,VALID,2.19,
2017-05-27, 08:49:06,VALID,916.392,VALID,0.0,VALID,85.233,VALID,538.64,VALID,23.767,VALID,160.0,VALID,2.593,
2017-05-27, 08:50:06,VALID,916.377,VALID,0.0,VALID,85.905,VALID,533.824,VALID,23.71,VALID,160.0,VALID,2.022,
2017-05-27, 08:51:06,VALID,916.372,VALID,0.0,VALID,86.247,VALID,494.584,VALID,23.781,VALID,165.0,VALID,2.082,
2017-05-27, 08:52:06,VALID,916.36,VALID,0.0,VALID,85.764,VALID,450.458,VALID,23.922,VALID,177.0,VALID,1.353,
2017-05-27, 08:53:06,VALID,916.351,VALID,0.0,VALID,84.758,VALID,465.212,VALID,24.049,VALID,155.0,VALID,1.918,
2017-05-27, 08:54:06,VALID,916.342,VALID,0.0,VALID,84.694,VALID,443.003,VALID,23.907,VALID,154.0,VALID,2.418,
2017-05-27, 08:55:06,VALID,916.356,VALID,0.0,VALID,85.258,VALID,462.833,VALID,23.824,VALID,159.0,VALID,2.065,
2017-05-27, 08:56:06,VALID,916.364,VALID,0.0,VALID,85.176,VALID,529.013,VALID,23.885,VALID,160.0,VALID,1.472,
2017-05-27, 08:57:06,VALID,916.384,VALID,0.0,VALID,85.304,VALID,559.748,VALID,24.056,VALID,145.0,VALID,1.966,
2017-05-27, 08:58:06,VALID,916.382,VALID,0.0,VALID,85.092,VALID,565.233,VALID,24.06,VALID,136.0,VALID,1.849,
2017-05-27, 08:59:06,VALID,916.394,VALID,0.0,VALID,86.026,VALID,511.027,VALID,24.188,VALID,137.0,VALID,1.432,
2017-05-27, 09:00:06,VALID,916.393,VALID,0.0,VALID,85.805,VALID,518.378,VALID,24.306,VALID,116.0,VALID,2.241,
2017-05-27, 09:01:06,VALID,916.379,VALID,0.0,VALID,84.555,VALID,513.705,VALID,24.226,VALID,102.0,VALID,2.65,
